Miscellaneous Local Product
Issued by NWS Hastings, NE

Home | Current Version | Previous Version | Text Only | Print | Product List | Glossary Off
Versions: 1 2 3 4 5 6 7 8 9 10 11 12 13 14 15 16 17 18 19 20 21 22 23 24 25 26 27 28 29 30 31 32 33 34 35 36 37 38 39 40 41 42 43 44 45 46 47 48 49 50

000
AXUS43 KGID 310402
MISGRI

GID CWA HOURLY WEATHER ROUNDUP
NATIONAL WEATHER SERVICE HASTINGS NE
1100 PM CDT WED JUL 30 2014

NOTE: "FAIR" INDICATES FEW OR NO CLOUDS BELOW 12,000 FEET WITH NO
SIGNIFICANT WEATHER AND/OR OBSTRUCTIONS TO VISIBILITY.

...SOUTH CENTRAL NEBRASKA...

CITY           SKY/WX    TMP DP  RH WIND       PRES   REMARKS
GRAND ISLAND   PTCLDY    66  58  75 S5        30.15R
HASTINGS       PTCLDY    69  53  56 S5        30.15S
KEARNEY        MOCLDY    64  57  77 S6        30.16S
ORD            CLEAR     66  59  78 SE3       30.13R
YORK           PTCLDY    63  59  88 SW3       30.14S
AURORA         PTCLDY    63  59  88 CALM      30.15S
LEXINGTON      MOCLDY    66  60  80 S3        30.17S
HOLDREGE       MOCLDY    66  57  72 CALM      30.16S
HEBRON         PTCLDY    59  53  79 CALM      30.14S

...NEBRASKA PANHANDLE...

CITY           SKY/WX    TMP DP  RH WIND       PRES   REMARKS
CHADRON        CLOUDY    68  49  50 VRB3      30.16R
ALLIANCE       MOCLDY    62  55  77 SW8       30.22R
SCOTTSBLUFF    MOCLDY    67  58  72 SW3       30.23R
SIDNEY         CLOUDY    61  58  90 W8        30.28S

...WESTERN AND NORTH CENTRAL NEBRASKA...

CITY           SKY/WX    TMP DP  RH WIND       PRES   REMARKS
VALENTINE      MOCLDY    70  52  52 SW9       30.11R
AINSWORTH      MOCLDY    65  54  67 S8        30.12S
ONEILL         PTCLDY    67  59  75 SE6       30.14S
BROKEN BOW     PTCLDY    59  56  89 N3        30.15S
IMPERIAL       MOCLDY    65  59  81 W8        30.23R
NORTH PLATTE   PTCLDY    61  55  81 CALM      30.18R
MCCOOK         MOCLDY    68  60  75 SW5       30.18R

...EASTERN NEBRASKA...

CITY           SKY/WX    TMP DP  RH WIND       PRES   REMARKS
NORFOLK        PTCLDY    63  56  78 CALM      30.13R
SO SIOUX CITY  CLEAR     62  56  80 CALM      30.11S
TEKAMAH        CLEAR     61  54  77 CALM      30.11S
ALBION         PTCLDY    61  58  90 CALM      30.14R
OMAHA EPPLEY   CLEAR     67  59  75 CALM      30.11S
OFFUTT AFB     PTCLDY    59  59  99 CALM      30.11S
MILLARD        PTCLDY    65  57  75 CALM      30.11S
LINCOLN        PTCLDY    67  55  65 CALM      30.12S
NEBRASKA CITY  PTCLDY    66  55  66 CALM      30.12S
BEATRICE       PTCLDY    63  57  82 CALM      30.13R
FALLS CITY     CLEAR     66  58  75 NW3       30.11R

...NORTHERN KANSAS...

CITY           SKY/WX    TMP DP  RH WIND       PRES   REMARKS
GOODLAND       MOCLDY    62  59  90 W7        30.26R
HILL CITY      MOCLDY    66  54  65 CALM      30.18R
NORTON         CLEAR     68  55  64 CALM      30.17S
PHILLIPSBURG   CLEAR     66  55  68 E5        30.16R
SMITH CENTER   CLEAR     64  54  68 E7        30.16S
HAYS           PTCLDY    63  55  77 S6        30.17S
RUSSELL        CLEAR     63  60  90 S6        30.15R
CONCORDIA      PTCLDY    66  56  70 CALM      30.14R
SALINA         CLEAR     66  57  72 SW8       30.14R
TOPEKA         CLEAR     65  57  75 CALM      30.11R



USA.gov is the U.S. government's official web portal to all federal, state and local government web resources and services.